Location: Alafon
(8.4500°N, 4.2333°E)
Time: 06:46:09
(UTC+00:00)

Vanguard 2 - Pass Details

Date: 11 August 2021
Orbit: 553 x 2937 km, 32.9° (Epoch: 24 September)

Event Time Altitude Azimuth Distance (km) Brightness Sun altitude
Rises 07:16:24 0° 313° (NW) 2,962 10.2 23.4°
Reaches altitude 10° 07:18:26 10° 319° (NW) 2,197 9.7 23.8°
Maximum altitude 07:23:21 53° 36° (NE) 1,138 9.3 25.0°
Drops below altitude 10° 07:31:10 10° 111° (ESE) 3,451 11.9 26.9°
Sets 07:35:07 0° 115° (ESE) 4,844 12.4 27.9°
